DLH9E EDDH-EDDM

Flight info

Callsign DLH9E
Flight time 1h 5m
Altitude 35000
Route AMLUH2G AMLUH M852 DENIX DCT ZUCKA DCT SODRO/N0450F310 T703 LULAR/N0438F300 T105 LANDU LANDU2A
Aircraft A21N/M-SDE2E3FGHIRWXY/LB1

Departure

Time 2026-05-07 22:10
Airport Hamburg Helmut Schmidt Airport (EDDH)

Arrival

Time 2026-05-07 23:16
Airport Munich Airport (EDDM)
Time Latitude Longitude Altitude Speed Heading
2026-05-07 21:38 53.63113 10.00367 49 ft 0 kts 87°
2026-05-07 22:02 53.63113 10.00342 45 ft 4 kts 93°
2026-05-07 22:02 53.63116 10.00298 44 ft 4 kts 107°
2026-05-07 22:02 53.63127 10.00257 46 ft 4 kts 126°
2026-05-07 22:02 53.63145 10.00226 45 ft 4 kts 155°
2026-05-07 22:03 53.63160 10.00218 48 ft 1 kts 176°
2026-05-07 22:06 53.63159 10.00218 48 ft 1 kts 176°
2026-05-07 22:07 53.63150 10.00219 48 ft 3 kts 175°
2026-05-07 22:07 53.63103 10.00226 48 ft 9 kts 175°
2026-05-07 22:07 53.63033 10.00185 48 ft 12 kts 213°
2026-05-07 22:07 53.62955 10.00101 49 ft 15 kts 212°
2026-05-07 22:08 53.62871 10.00028 49 ft 12 kts 206°
2026-05-07 22:08 53.62830 9.99988 50 ft 2 kts 211°
2026-05-07 22:08 53.62827 9.99986 50 ft 2 kts 211°
2026-05-07 22:08 53.62800 9.99958 49 ft 6 kts 211°
2026-05-07 22:09 53.62753 9.99911 51 ft 9 kts 215°
2026-05-07 22:09 53.62763 9.99835 49 ft 6 kts 324°
2026-05-07 22:09 53.62781 9.99818 50 ft 1 kts 333°
2026-05-07 22:09 53.62884 9.99730 50 ft 33 kts 333°
2026-05-07 22:10 53.63294 9.99374 50 ft 105 kts 332°
2026-05-07 22:10 53.64187 9.98602 47 ft 179 kts 333°
2026-05-07 22:10 53.65362 9.97586 593 ft 192 kts 335°
2026-05-07 22:10 53.66565 9.96587 1424 ft 200 kts 337°
2026-05-07 22:11 53.67837 9.95566 2239 ft 206 kts 336°
2026-05-07 22:11 53.69183 9.94479 2831 ft 227 kts 341°
2026-05-07 22:11 53.70757 9.94211 3531 ft 230 kts
2026-05-07 22:11 53.72320 9.94765 4389 ft 229 kts 25°
2026-05-07 22:12 53.73599 9.96307 4930 ft 227 kts 53°
2026-05-07 22:12 53.74263 9.98681 5096 ft 225 kts 81°
2026-05-07 22:12 53.74392 10.01329 5108 ft 226 kts 91°
2026-05-07 22:12 53.74109 10.03881 5151 ft 228 kts 111°
2026-05-07 22:13 53.73375 10.06365 5446 ft 250 kts 118°
2026-05-07 22:13 53.72489 10.08953 6236 ft 258 kts 119°
2026-05-07 22:13 53.71581 10.11586 7146 ft 262 kts 118°
2026-05-07 22:13 53.70662 10.14280 7981 ft 268 kts 119°
2026-05-07 22:14 53.69725 10.17039 8862 ft 273 kts 120°
2026-05-07 22:14 53.68561 10.19607 9719 ft 280 kts 138°
2026-05-07 22:14 53.66889 10.21289 10467 ft 288 kts 159°
2026-05-07 22:14 53.64907 10.22350 10870 ft 310 kts 165°
2026-05-07 22:15 53.62744 10.23305 11208 ft 333 kts 166°
2026-05-07 22:15 53.60452 10.24304 11732 ft 347 kts 165°
2026-05-07 22:15 53.58087 10.25353 12514 ft 354 kts 165°
2026-05-07 22:15 53.55689 10.26430 13321 ft 359 kts 165°
2026-05-07 22:16 53.53254 10.27533 14138 ft 364 kts 165°
2026-05-07 22:16 53.50825 10.28638 14878 ft 368 kts 165°
2026-05-07 22:16 53.48341 10.29768 15626 ft 372 kts 165°
2026-05-07 22:16 53.45825 10.30914 16366 ft 376 kts 165°
2026-05-07 22:17 53.43280 10.32072 17090 ft 380 kts 165°
2026-05-07 22:17 53.40711 10.33235 17801 ft 384 kts 165°
2026-05-07 22:17 53.38113 10.34406 18469 ft 389 kts 166°
2026-05-07 22:17 53.35487 10.35586 19047 ft 392 kts 166°
2026-05-07 22:18 53.32837 10.36774 19641 ft 396 kts 166°
2026-05-07 22:18 53.27468 10.39179 20830 ft 403 kts 166°
2026-05-07 22:18 53.24778 10.40382 21423 ft 406 kts 166°
2026-05-07 22:19 53.22043 10.41604 21993 ft 409 kts 166°
2026-05-07 22:19 53.19279 10.42836 22554 ft 412 kts 166°
2026-05-07 22:19 53.16497 10.44076 23080 ft 416 kts 166°
2026-05-07 22:19 53.13688 10.45323 23610 ft 419 kts 167°
2026-05-07 22:20 53.10838 10.46438 24046 ft 421 kts 169°
2026-05-07 22:20 53.07951 10.47400 24459 ft 424 kts 170°
2026-05-07 22:20 53.05036 10.48288 24871 ft 427 kts 171°
2026-05-07 22:20 53.02097 10.49154 25287 ft 429 kts 171°
2026-05-07 22:21 52.99145 10.50025 25693 ft 432 kts 171°
2026-05-07 22:21 52.96217 10.50899 26075 ft 434 kts 171°
2026-05-07 22:21 52.93223 10.51806 26458 ft 437 kts 171°
2026-05-07 22:21 52.90224 10.52725 26828 ft 439 kts 170°
2026-05-07 22:22 52.87212 10.53653 27192 ft 442 kts 170°
2026-05-07 22:22 52.84175 10.54591 27550 ft 444 kts 170°
2026-05-07 22:22 52.81128 10.55532 27902 ft 446 kts 170°
2026-05-07 22:22 52.78068 10.56476 28233 ft 449 kts 170°
2026-05-07 22:23 52.74989 10.57423 28566 ft 451 kts 170°
2026-05-07 22:23 52.71904 10.58371 28993 ft 450 kts 170°
2026-05-07 22:23 52.68826 10.59314 29459 ft 449 kts 170°
2026-05-07 22:23 52.65752 10.60255 29865 ft 449 kts 170°
2026-05-07 22:24 52.62682 10.61194 30282 ft 448 kts 170°
2026-05-07 22:24 52.59620 10.62128 30639 ft 447 kts 170°
2026-05-07 22:24 52.56559 10.63060 30977 ft 447 kts 170°
2026-05-07 22:24 52.53538 10.63979 31307 ft 447 kts 170°
2026-05-07 22:25 52.50481 10.64907 31591 ft 447 kts 170°
2026-05-07 22:25 52.47423 10.65834 31880 ft 447 kts 170°
2026-05-07 22:25 52.44359 10.66762 32195 ft 447 kts 170°
2026-05-07 22:25 52.41296 10.67689 32501 ft 447 kts 170°
2026-05-07 22:26 52.38238 10.68612 32798 ft 446 kts 170°
2026-05-07 22:26 52.35177 10.69535 33086 ft 446 kts 170°
2026-05-07 22:26 52.32121 10.70456 33357 ft 446 kts 170°
2026-05-07 22:26 52.29068 10.71374 33638 ft 446 kts 170°
2026-05-07 22:27 52.26019 10.72290 33897 ft 446 kts 171°
2026-05-07 22:27 52.22968 10.73205 34149 ft 446 kts 171°
2026-05-07 22:27 52.19915 10.74120 34363 ft 445 kts 171°
2026-05-07 22:27 52.16912 10.75018 34570 ft 445 kts 171°
2026-05-07 22:28 52.13864 10.75928 34769 ft 445 kts 171°
2026-05-07 22:28 52.10817 10.76837 34963 ft 445 kts 171°
2026-05-07 22:28 52.07769 10.77744 35108 ft 446 kts 171°
2026-05-07 22:29 52.01650 10.79563 35132 ft 446 kts 171°
2026-05-07 22:29 51.95532 10.81376 35127 ft 446 kts 171°
2026-05-07 22:30 51.89409 10.83186 35133 ft 447 kts 171°
2026-05-07 22:30 51.83334 10.84977 35135 ft 447 kts 171°
2026-05-07 22:31 51.77216 10.86775 35124 ft 447 kts 171°
2026-05-07 22:31 51.71085 10.88573 35130 ft 447 kts 171°
2026-05-07 22:32 51.65139 10.91532 35131 ft 449 kts 158°
2026-05-07 22:32 51.59465 10.95771 35130 ft 450 kts 155°
2026-05-07 22:33 51.53846 11.00250 35132 ft 450 kts 155°
2026-05-07 22:33 51.48266 11.04701 35132 ft 451 kts 155°
2026-05-07 22:34 51.42629 11.09145 35134 ft 451 kts 155°
2026-05-07 22:34 51.36980 11.13565 35132 ft 451 kts 155°
2026-05-07 22:35 51.31329 11.17968 35132 ft 451 kts 155°
2026-05-07 22:35 51.25674 11.22365 35123 ft 452 kts 155°
2026-05-07 22:36 51.20053 11.26723 35130 ft 452 kts 155°
2026-05-07 22:36 51.14390 11.31103 35129 ft 452 kts 155°
2026-05-07 22:37 51.08728 11.35470 35129 ft 452 kts 156°
2026-05-07 22:37 51.03069 11.39823 35132 ft 452 kts 156°
2026-05-07 22:38 50.97389 11.44180 35126 ft 452 kts 156°
2026-05-07 22:38 50.91719 11.48517 35127 ft 452 kts 156°
2026-05-07 22:39 50.86076 11.52822 35123 ft 452 kts 156°
2026-05-07 22:39 50.80398 11.57143 35124 ft 452 kts 156°
2026-05-07 22:40 50.74731 11.61443 35111 ft 452 kts 156°
2026-05-07 22:40 50.69036 11.65753 35121 ft 453 kts 156°
2026-05-07 22:41 50.64305 11.69324 35116 ft 453 kts 156°
2026-05-07 22:41 50.58616 11.73608 35117 ft 453 kts 156°
2026-05-07 22:42 50.51990 11.78583 35105 ft 453 kts 156°
2026-05-07 22:42 50.47216 11.82156 35105 ft 453 kts 157°
2026-05-07 22:43 50.41497 11.86184 35103 ft 453 kts 159°
2026-05-07 22:43 50.35705 11.90068 35102 ft 452 kts 159°
2026-05-07 22:44 50.29905 11.93941 35102 ft 452 kts 159°
2026-05-07 22:44 50.24108 11.97829 35099 ft 453 kts 159°
2026-05-07 22:45 50.18351 12.01699 35100 ft 453 kts 159°
2026-05-07 22:45 50.12556 12.05590 35099 ft 453 kts 159°
2026-05-07 22:46 50.06756 12.09473 35092 ft 453 kts 159°
2026-05-07 22:46 50.00962 12.13335 35077 ft 453 kts 159°
2026-05-07 22:47 49.95196 12.17168 35080 ft 453 kts 159°
2026-05-07 22:47 49.89377 12.21026 35081 ft 454 kts 159°
2026-05-07 22:48 49.83559 12.24873 35077 ft 454 kts 159°
2026-05-07 22:48 49.77788 12.28679 35078 ft 454 kts 159°
2026-05-07 22:49 49.72079 12.32875 35076 ft 457 kts 149°
2026-05-07 22:49 49.66857 12.38520 35077 ft 459 kts 146°
2026-05-07 22:50 49.61752 12.44478 35086 ft 460 kts 145°
2026-05-07 22:50 49.56648 12.50490 34682 ft 464 kts 145°
2026-05-07 22:50 49.54248 12.53300 33918 ft 468 kts 145°
2026-05-07 22:51 49.51643 12.56334 32910 ft 472 kts 145°
2026-05-07 22:51 49.49013 12.59386 32014 ft 474 kts 145°
2026-05-07 22:51 49.46387 12.62425 31168 ft 474 kts 145°
2026-05-07 22:51 49.43788 12.65579 30292 ft 476 kts 139°
2026-05-07 22:52 49.41256 12.68847 29332 ft 474 kts 149°
2026-05-07 22:52 49.38318 12.71032 28499 ft 466 kts 164°
2026-05-07 22:52 49.35179 12.72030 27751 ft 457 kts 178°
2026-05-07 22:52 49.32041 12.71853 27051 ft 447 kts 192°
2026-05-07 22:53 49.29077 12.70600 26334 ft 439 kts 203°
2026-05-07 22:53 49.26269 12.68845 25702 ft 433 kts 206°
2026-05-07 22:53 49.23556 12.66942 25178 ft 425 kts 207°
2026-05-07 22:53 49.20912 12.64992 24646 ft 418 kts 208°
2026-05-07 22:54 49.18356 12.63078 24125 ft 412 kts 208°
2026-05-07 22:54 49.15791 12.61166 23589 ft 407 kts 208°
2026-05-07 22:54 49.13253 12.59299 23013 ft 401 kts 208°
2026-05-07 22:54 49.10758 12.57487 22506 ft 393 kts 208°
2026-05-07 22:55 49.08301 12.55721 22024 ft 386 kts 207°
2026-05-07 22:55 49.05888 12.53998 21487 ft 381 kts 208°
2026-05-07 22:55 49.03502 12.52300 21006 ft 375 kts 208°
2026-05-07 22:55 49.01154 12.50626 20519 ft 370 kts 208°
2026-05-07 22:56 48.98840 12.48974 20031 ft 365 kts 208°
2026-05-07 22:56 48.96573 12.47355 19556 ft 361 kts 208°
2026-05-07 22:56 48.94320 12.45746 19086 ft 357 kts 208°
2026-05-07 22:56 48.92080 12.44147 18618 ft 354 kts 208°
2026-05-07 22:57 48.89856 12.42561 18109 ft 351 kts 208°
2026-05-07 22:57 48.87657 12.40994 17634 ft 347 kts 208°
2026-05-07 22:57 48.85488 12.39451 17174 ft 342 kts 208°
2026-05-07 22:57 48.83346 12.37930 16731 ft 338 kts 208°
2026-05-07 22:58 48.81228 12.36427 16292 ft 334 kts 208°
2026-05-07 22:58 48.79071 12.35101 15841 ft 335 kts 201°
2026-05-07 22:58 48.76850 12.34045 15400 ft 334 kts 199°
2026-05-07 22:58 48.74645 12.33106 14960 ft 332 kts 198°
2026-05-07 22:59 48.72410 12.32222 14503 ft 330 kts 197°
2026-05-07 22:59 48.70189 12.31377 14076 ft 327 kts 197°
2026-05-07 22:59 48.68021 12.30569 13882 ft 316 kts 197°
2026-05-07 22:59 48.65891 12.29769 13405 ft 314 kts 197°
2026-05-07 23:00 48.63791 12.28895 12970 ft 311 kts 203°
2026-05-07 23:00 48.61868 12.27364 12784 ft 318 kts 220°
2026-05-07 23:00 48.60356 12.24928 12550 ft 318 kts 239°
2026-05-07 23:00 48.59515 12.21875 12306 ft 315 kts 258°
2026-05-07 23:01 48.59248 12.18587 12065 ft 315 kts 266°
2026-05-07 23:01 48.59134 12.15273 11819 ft 315 kts 267°
2026-05-07 23:01 48.59036 12.11976 11576 ft 314 kts 267°
2026-05-07 23:01 48.58932 12.08693 11337 ft 312 kts 267°
2026-05-07 23:02 48.58821 12.05441 11133 ft 304 kts 267°
2026-05-07 23:02 48.58709 12.02327 10944 ft 290 kts 266°
2026-05-07 23:02 48.58600 11.99378 10727 ft 279 kts 266°
2026-05-07 23:02 48.58492 11.96494 10499 ft 269 kts 266°
2026-05-07 23:03 48.58386 11.93722 10300 ft 261 kts 266°
2026-05-07 23:03 48.58281 11.90990 10099 ft 260 kts 266°
2026-05-07 23:03 48.58175 11.88275 9841 ft 259 kts 266°
2026-05-07 23:03 48.58069 11.85567 9633 ft 258 kts 266°
2026-05-07 23:04 48.57962 11.82853 9423 ft 258 kts 266°
2026-05-07 23:04 48.57854 11.80146 9240 ft 257 kts 266°
2026-05-07 23:04 48.57747 11.77446 9032 ft 257 kts 266°
2026-05-07 23:04 48.57640 11.74788 8848 ft 257 kts 266°
2026-05-07 23:05 48.57531 11.72091 8644 ft 256 kts 266°
2026-05-07 23:05 48.57422 11.69410 8451 ft 256 kts 266°
2026-05-07 23:05 48.57313 11.66733 8256 ft 255 kts 266°
2026-05-07 23:05 48.57202 11.64048 8059 ft 255 kts 266°
2026-05-07 23:06 48.56931 11.61485 7870 ft 254 kts 252°
2026-05-07 23:06 48.56119 11.59175 7708 ft 250 kts 231°
2026-05-07 23:06 48.54845 11.57454 7510 ft 242 kts 218°
2026-05-07 23:06 48.53482 11.56038 7321 ft 233 kts 216°
2026-05-07 23:07 48.52152 11.54710 7098 ft 226 kts 216°
2026-05-07 23:07 48.50845 11.53401 6946 ft 225 kts 216°
2026-05-07 23:07 48.49545 11.52090 6797 ft 224 kts 216°
2026-05-07 23:07 48.48250 11.50778 6605 ft 224 kts 216°
2026-05-07 23:08 48.46957 11.49465 6443 ft 224 kts 216°
2026-05-07 23:08 48.45665 11.48151 6264 ft 224 kts 216°
2026-05-07 23:08 48.44371 11.46834 6096 ft 224 kts 216°
2026-05-07 23:08 48.43090 11.45531 5926 ft 223 kts 215°
2026-05-07 23:09 48.41817 11.44236 5673 ft 223 kts 215°
2026-05-07 23:09 48.40534 11.42932 5467 ft 222 kts 215°
2026-05-07 23:09 48.39245 11.41624 5306 ft 222 kts 214°
2026-05-07 23:09 48.37952 11.40346 5130 ft 222 kts 210°
2026-05-07 23:10 48.36530 11.39477 5005 ft 222 kts 191°
2026-05-07 23:10 48.35016 11.39414 4990 ft 222 kts 170°
2026-05-07 23:10 48.33594 11.40217 4990 ft 223 kts 148°
2026-05-07 23:10 48.32479 11.41833 4986 ft 225 kts 121°
2026-05-07 23:11 48.31906 11.44011 4993 ft 227 kts 102°
2026-05-07 23:11 48.31811 11.46381 4996 ft 228 kts 86°
2026-05-07 23:11 48.31971 11.48698 5021 ft 213 kts 84°
2026-05-07 23:11 48.32141 11.50829 4885 ft 199 kts 83°
2026-05-07 23:12 48.32312 11.52820 4569 ft 193 kts 83°
2026-05-07 23:12 48.32487 11.54833 4190 ft 191 kts 83°
2026-05-07 23:12 48.32656 11.56808 3845 ft 187 kts 83°
2026-05-07 23:12 48.32811 11.58714 3619 ft 180 kts 84°
2026-05-07 23:13 48.32949 11.60493 3478 ft 164 kts 84°
2026-05-07 23:13 48.33072 11.62163 3264 ft 157 kts 84°
2026-05-07 23:13 48.33189 11.63717 3048 ft 143 kts 83°
2026-05-07 23:13 48.33302 11.65174 2862 ft 139 kts 83°
2026-05-07 23:14 48.33412 11.66601 2686 ft 138 kts 83°
2026-05-07 23:14 48.33522 11.68039 2476 ft 139 kts 83°
2026-05-07 23:14 48.33635 11.69482 2258 ft 139 kts 83°
2026-05-07 23:14 48.33744 11.70929 2057 ft 139 kts 84°
2026-05-07 23:15 48.33849 11.72372 1865 ft 139 kts 83°
2026-05-07 23:15 48.33965 11.73796 1704 ft 139 kts 83°
2026-05-07 23:15 48.34081 11.75244 1512 ft 139 kts 83°
2026-05-07 23:15 48.34183 11.76605 1471 ft 115 kts 83°
2026-05-07 23:16 48.34238 11.77283 1466 ft 38 kts 77°
2026-05-07 23:16 48.34322 11.77534 1466 ft 15 kts 52°
2026-05-07 23:16 48.34387 11.77662 1467 ft 16 kts 54°
2026-05-07 23:16 48.34457 11.77809 1467 ft 18 kts 53°
2026-05-07 23:17 48.34540 11.77907 1463 ft 16 kts 12°
2026-05-07 23:17 48.34654 11.77902 1461 ft 17 kts 353°
2026-05-07 23:17 48.34776 11.77878 1467 ft 19 kts 353°
2026-05-07 23:17 48.34897 11.77857 1468 ft 15 kts 353°
2026-05-07 23:18 48.35006 11.77839 1468 ft 17 kts 353°
2026-05-07 23:18 48.35124 11.77819 1461 ft 16 kts 354°
2026-05-07 23:18 48.35195 11.77901 1463 ft 14 kts 71°
2026-05-07 23:18 48.35202 11.78052 1462 ft 15 kts 84°
2026-05-07 23:19 48.35201 11.78185 1467 ft 11 kts 115°
2026-05-07 23:19 48.35139 11.78234 1465 ft 11 kts 171°
2026-05-07 23:19 48.35092 11.78271 1466 ft 7 kts 117°
2026-05-07 23:19 48.35092 11.78334 1466 ft 5 kts 83°
2026-05-07 23:20 48.35094 11.78357 1469 ft 0 kts 83°